Regional Weather Roundup
Issued by NWS

Home | Current Version | Previous Version | Text Only | Print | Product List | Glossary Off
Versions: 1 2 3 4 5 6 7 8 9 10 11 12 13 14 15 16 17 18 19 20 21 22 23 24 25 26 27 28 29 30 31 32 33 34 35 36 37 38 39 40 41 42 43 44 45 46 47 48 49 50

000
ASUS45 KTFX 300404
RWRMT
MONTANA HOURLY WEATHER ROUNDUP
NATIONAL WEATHER SERVICE GREAT FALLS MT
904 PM MST THU JAN 29 2015

NOTE: "FAIR" INDICATES FEW OR NO CLOUDS BELOW 12000 FEET WITH NO
SIGNIFICANT WEATHER AND/OR OBSTRUCTIONS TO VISIBILITY.

* THESE STATIONS ARE NOT UNDER NWS QUALITY CONTROL. THEY DO NOT
   REPORT WEATHER SUCH AS PRECIPITATION OR FOG.

MTZ001>007-043-300500-
WEST OF THE DIVIDE
CITY           SKY/WX    TMP DP  RH WIND       PRES   REMARKS
KALISPELL      FOG       16  16 100 NE7       30.36S WCI   6
MISSOULA       PTCLDY    27  21  78 CALM      30.37R
BUTTE          PTCLDY    27  21  78 CALM      30.32R
MULLAN PASS    CLEAR     30  21  69 S3        30.28F
* ANACONDA     MOCLDY    28  25  89 SW3        N/A
* ESSEX        N/A       22  19  88 N/A        N/A
* LINCOLN      N/A       25  19  78 NW1        N/A
* LOOKOUT PASS N/A       29  24  82 S1         N/A
* POLSON       N/A       25  24  96 S1         N/A
* RONAN APT    CLEAR     25  25 100 N/A        N/A
* SEELEY LAKE  N/A       20  17  88 N/A        N/A
* THOMP F APT  CLEAR     28  21  75 NE4        N/A
$$

MTZ008-052>055-300500-
SOUTHWEST MONTANA
CITY           SKY/WX    TMP DP  RH WIND       PRES   REMARKS
BOZEMAN        MOCLDY    25  21  85 S6        30.32R WCI  18
DILLON         MOCLDY    30  23  75 S10       30.30S WCI  21
* W YELLOWSTON MOCLDY    20  18  92 N/A        N/A
* THREE FORKS  MOCLDY   N/A N/A N/A N/A        N/A
* BOULDER HILL N/A       33  19  56 S6         N/A   WCI  27
* MONIDA PASS  N/A       11  10  96 SW4        N/A
* RAYNOLDS PAS N/A       21   7  55 S9         N/A   WCI  11
* WHITEHALL    N/A       30  22  72 NW6        N/A   WCI  24
* WISE RIVER   N/A       23  18  81 W5         N/A   WCI  16
$$

MTZ009>010-012-014-046-048-049-054-300500-
EAST SLOPES AND CENTRAL MONTANA
CITY           SKY/WX    TMP DP  RH WIND       PRES   REMARKS
CUT BANK       CLEAR     34  14  44 W15       30.18F WCI  24
GREAT FALLS    PTCLDY    36  19  50 SW13      30.21R WCI  27
HELENA         CLOUDY    34  25  70 W6        30.29F WCI  29
MALMSTROM AFB  PTCLDY    37  19  48 W9        30.22R WCI  30
* DEARBORN     N/A       41  20  43 S7         N/A
* EAST GLACIER N/A       36   9  32 W15G21     N/A   WCI  27
* MONARCH      N/A       35   5  28 S6G12      N/A   WCI  30
* PENDROY      N/A       37   6  27 W14        N/A   WCI  28
* ROGERS PASS  N/A       32  17  54 S6         N/A   WCI  26
* SWEET GRASS  N/A       36  14  40 W11        N/A   WCI  28
$$

MTZ011-013-016-021-035-040-045-047-050-051-300500-
NORTH CENTRAL MONTANA
CITY           SKY/WX    TMP DP  RH WIND       PRES   REMARKS
HAVRE          PTCLDY    27  23  85 CALM      30.20S
LEWISTOWN      MOCLDY    30  21  69 SE6       30.21S WCI  24
* N BAR RANCH  CLEAR     32  19  59 W5        30.22S WCI  27
* CHESTER      N/A       30  27  89 NE1        N/A
* DENTON       N/A       34  26  73 S2         N/A
* GEYSER       N/A       37  12  36 NW4        N/A
* JUDITH GAP   N/A       30  21  69 SE4        N/A
* LOMA         N/A       33  30  89 NW3        N/A
$$

MTZ017>020-022>027-061-062-300500-
NORTHEAST MONTANA
CITY           SKY/WX    TMP DP  RH WIND       PRES   REMARKS
GLASGOW        PTCLDY    30  25  82 E10       30.21F WCI  21
GLENDIVE       CLEAR     28  19  69 S5        30.27F WCI  22
JORDAN         PTCLDY    32  25  75 CALM      30.20F
SIDNEY         CLEAR     27  19  72 CALM      30.30F
WOLF POINT     CLEAR     27  21  78 NE6       30.25F WCI  20
* BEAVER HILL  N/A       32  17  54 SE16       N/A   WCI  21
* CIRCLE       N/A       34  26  73 W1G7       N/A
* LINDSAY DVD  N/A       28  20  72 S2G7       N/A
* NAVAJO       N/A       24  21  88 S9         N/A   WCI  14
* SACO         N/A       22  21  96 NE2        N/A
$$

MTZ028>042-056>058-300500-
SOUTHCENTRAL AND SOUTHEAST MONTANA
CITY           SKY/WX    TMP DP  RH WIND       PRES   REMARKS
BAKER          CLEAR     28  18  66 SE9       30.28F WCI  19
BILLINGS       PTCLDY    39  28  65 SW18      30.23F WCI  30
LIVINGSTON     MOCLDY    36  21  54 NW13      30.27R WCI  27
MILES CITY     CLEAR     34  23  64 S10       30.25F WCI  26
* LAUREL APT   PTCLDY    37  25  62 N/A        N/A
* ROUNDUP APT  PTCLDY    37  25  62 SW8        N/A   WCI  31
* ALZADA       N/A       29  16  58 E6         N/A   WCI  23
* HYSHAM       N/A       40  17  39 W4         N/A
* LAME DEER    N/A       36  21  54 S7         N/A   WCI  30
* REED POINT   N/A       30  27  89 N/A        N/A
* ROSCOE HILL  N/A       36   7  30 SW4        N/A
$$

REGIONAL REPORTS...DAKOTAS
CITY           SKY/WX    TMP DP  RH WIND       PRES   REMARKS
WILLISTON      CLEAR     27  19  72 S3        30.30F
DICKINSON      CLEAR     23  18  81 S9        30.30F WCI  13
CROSBY         CLEAR     21  21 100 S5        30.32F WCI  14
WATFORD CITY   CLEAR     25  21  85 SE7       30.29F WCI  17
BISMARCK       CLEAR     18  16  92 SE7       30.45F WCI   9
GRAND FORKS    PTCLDY     7   0  73 CALM      30.59R
FARGO          CLEAR      9   1  70 N6        30.59R WCI  -1
BUFFALO SD     CLEAR     28  12  51 SE8       30.26F WCI  20
RAPID CITY     CLEAR     28   9  45 SE5       30.35F WCI  22
$$

REGIONAL REPORTS...WYOMING/IDAHO/WASHINGTON
CITY           SKY/WX    TMP DP  RH WIND       PRES   REMARKS
GILLETTE       PTCLDY    28  21  75 S9        30.27F WCI  19
SHERIDAN       PTCLDY    25  19  78 SW3       30.23F
CODY           PTCLDY    28  27  96 S5        30.27F WCI  22
YELLOWSTONE LA PTCLDY     9   3  76 CALM      30.36S
SALMON         PTCLDY    19  18  96 CALM      30.39S
MULLAN PASS    CLEAR     30  21  69 S3        30.28S
SAND POINT     CLEAR     28  28 100 CALM      30.39S
SPOKANE        PTCLDY    28  28 100 NW3       30.36S

$$




USA.gov is the U.S. government's official web portal to all federal, state and local government web resources and services.